﻿"﻿最高氣溫 (攝氏度) - ���j�P"
"Maximum Temperature (°C) - Wong Tai Sin"
年/Year,月/Month,日/Day,數值/Value,"數據完整性/data Completeness"
2024,1,1,23.1,C
2024,1,2,21.8,C
2024,1,3,23.7,#
2024,1,4,20.6,C
2024,1,5,24.0,C
2024,1,6,25.6,C
2024,1,7,22.4,C
2024,1,8,21.8,C
2024,1,9,25.3,C
2024,1,10,24.7,C
2024,1,11,21.7,C
2024,1,12,22.7,#
2024,1,13,23.1,C
2024,1,14,25.2,C
2024,1,15,26.3,C
2024,1,16,21.2,C
2024,1,17,21.8,C
2024,1,18,26.0,C
2024,1,19,25.1,C
2024,1,20,26.7,C
2024,1,21,20.9,C
2024,1,22,17.4,C
2024,1,23,9.7,C
2024,1,24,13.0,C
2024,1,25,17.2,C
2024,1,26,19.2,C
2024,1,27,18.7,C
2024,1,28,16.2,C
2024,1,29,18.3,C
2024,1,30,20.7,C
2024,1,31,22.4,C
2024,2,1,26.9,C
2024,2,2,27.0,C
2024,2,3,23.3,C
2024,2,4,22.4,C
2024,2,5,22.2,C
2024,2,6,21.8,C
2024,2,7,19.0,C
2024,2,8,13.2,C
2024,2,9,14.7,C
2024,2,10,19.6,C
2024,2,11,23.9,C
2024,2,12,21.5,C
2024,2,13,24.5,C
2024,2,14,25.9,C
2024,2,15,27.9,C
2024,2,16,22.8,C
2024,2,17,21.8,C
2024,2,18,26.2,C
2024,2,19,25.8,C
2024,2,20,26.8,C
2024,2,21,28.3,C
2024,2,22,26.7,C
2024,2,23,22.9,C
2024,2,24,22.0,C
2024,2,25,22.6,C
2024,2,26,21.9,C
2024,2,27,19.4,#
2024,2,28,19.5,C
2024,2,29,23.1,C
2024,3,1,14.6,C
2024,3,2,14.7,C
2024,3,3,19.5,C
2024,3,4,22.7,C
2024,3,5,26.5,C
2024,3,6,28.1,C
2024,3,7,20.0,C
2024,3,8,21.9,C
2024,3,9,18.8,C
2024,3,10,16.7,C
2024,3,11,19.1,C
2024,3,12,23.4,C
2024,3,13,22.2,C
2024,3,14,22.1,C
2024,3,15,22.0,C
2024,3,16,23.0,C
2024,3,17,28.0,C
2024,3,18,23.4,#
2024,3,19,25.0,C
2024,3,20,23.5,C
2024,3,21,23.0,C
2024,3,22,26.0,C
2024,3,23,27.9,C
2024,3,24,30.5,C
2024,3,25,30.1,C
2024,3,26,31.3,C
2024,3,27,23.7,C
2024,3,28,29.0,C
2024,3,29,30.4,C
2024,3,30,29.2,C
2024,3,31,28.1,C
"*** 沒有數據/unavailable"
"# 數據不完整/data incomplete"
"C 數據完整/data Complete"
